Regional Weather Roundup
Issued by NWS Grand Forks, ND

Home | Current Version | Previous Version | Text Only | Print | Product List | Glossary Off
Versions: 1 2 3 4 5 6 7 8 9 10 11 12 13 14 15 16 17 18 19 20 21 22 23 24 25 26 27 28 29 30 31 32 33 34 35 36 37 38 39 40 41 42 43 44 45 46 47 48 49 50

000
ASUS43 KFGF 281110
RWRFGF
PRAIRIE TO PINES  WEATHER ROUNDUP
NATIONAL WEATHER SERVICE EASTERN NORTH DAKOTA/GRAND FORKS ND
500 AM CST WED JAN 28 2015

 **SATELLITE DATA USED TO AUGMENT SKY COVER AT AUTOMATED STATIONS**
 *****  WEATHER ACROSS EASTERN NORTH DAKOTA  *****

CITY           SKY/WX    TMP DP  RH WIND       PRES   REMARKS
GRAND FORKS    CLOUDY    34  32  92 S10       29.80F FOG
GRAND FRKS AFB CLOUDY    33  32  97 S10       29.80F FOG     WCI  25
DEVILS LAKE    CLOUDY    32  30  93 S7        29.74F VSB 1/2
FARGO          CLOUDY    34  31  88 S18G29    29.82F WCI  23
WAHPETON ARPT  CLOUDY    32  30  93 S16       29.84S WCI  21
$$

 ***** WEATHER ACROSS CENTRAL AND WESTERN NORTH DAKOTA  *****

CITY           SKY/WX    TMP DP  RH WIND       PRES   REMARKS
BISMARCK       PTCLDY    27  27 100 CALM      29.73F
MINOT          FOG       28  27  96 NW9       29.73F VSB 1   WCI  19
JAMESTOWN      FOG       31  31 100 S8        29.74F VSB 1/4 WCI  23
MINOT AFB      FOG       27  27 100 N7        29.74R VSB 1/2 WCI  19
GARRISON         N/A     29  27  92 CALM      29.71S
WILLISTON      MOCLDY    31  29  92 S3        29.73S
DICKINSON      MOCLDY    36  30  79 W8        29.71S
HETTINGER      CLOUDY    32  28  85 W5        29.76R
$$

 *****  OTHER AIRPORT OBSERVATIONS IN OUR AREA  *****

CITY           SKY/WX    TMP DP  RH WIND       PRES   REMARKS
WALHALLA       FOG       32  32 100 E5        29.81S VSB 1/4
GRAFTON AIRPOR NOT AVBL
VALLEY CITY AR FOG       30  30 100 S12       29.76F VSB 1/4 WCI  21
CANDO          FOG       32  32 100 E5        29.76S VSB 1/2
CAVALIER APRT  FOG       32  32 100 SE5       29.81F VSB 1/2
GWINNER        CLOUDY    32  32 100 CALM      29.79F VSB 1/4
ROLLA          FOG       30  30 100 NE8       29.76S VSB 1/4 WCI  23
 ***** THE ABOVE OBSERVATIONS ARE NON NWS ARE NOT QUALITY
       CONTROLLED AND MAY MIS-REPORT RAIN FOR SNOW...
$$

  *****  WEATHER ACROSS NORTHERN MINNESOTA  *****

CITY           SKY/WX    TMP DP  RH WIND       PRES   REMARKS
FLAG ISLAND    CLOUDY    28  25  86 SE7       29.89F WCI  21
WARROAD        CLOUDY    30  27  86 SE7       29.88F FOG     WCI  23
ROSEAU         CLOUDY    30  27  86 SE7       29.87S HAZE    WCI  23
HALLOCK        CLOUDY   N/A N/A N/A SE9       29.82F FOG
THF RVR FALLS  CLOUDY    32  30  93 SE7       29.84F
BAUDETTE       CLOUDY    28  24  85 SE6       29.89F WCI  22
WASKISH        CLOUDY    30  27  86 SE9       29.89F WCI  22
CROOKSTON      CLOUDY    34  32  93 S15       29.84S WCI  24
STEPHEN NDAWN    N/A     34  32  93 SE10        N/A
GREENBUSH NDAW   N/A     30  28  93 SE10        N/A  WCI  21
$$
  *****  WEATHER ACROSS CENTRAL AND WEST MINNESOTA  *****

CITY           SKY/WX    TMP DP  RH WIND       PRES   REMARKS
FOSSTON        CLOUDY    30  28  93 SE10      29.84S WCI  21
BEMIDJI        CLOUDY    30  28  93 SE8       29.87F WCI  22
PARK RAPIDS    CLOUDY    31  29  92 SE15      29.88S WCI  20
ELBOW LAKE     CLOUDY    32  31  95 SE21G26   29.84F WCI  20
WADENA         CLOUDY    30  28  93 SE13        N/A  FOG     WCI  20
DETROIT LAKES  CLOUDY    32  32 100 S13       29.85F WCI  22
MOORHEAD       CLOUDY    34  34 100 CALM      29.84F
FERGUS FALLS   CLOUDY    32  30  93 S20G25    29.87F WCI  20
MORRIS MN      CLOUDY    34  30  86 SE20      29.85F FOG     WCI  22
STAPLES        CLOUDY    28  28 100 SE10G17   29.90F FOG     WCI  19
$$
  *****  WEATHER ELSEWHERE ACROSS MINNESOTA  *****

CITY           SKY/WX    TMP DP  RH WIND       PRES   REMARKS
DULUTH         CLOUDY    23  20  88 S8        30.01F WCI  14
INTRNTL FALLS  CLOUDY    26  23  88 SE6       29.94F WCI  19
ELY            CLOUDY    25  21  86 SE7       29.98F WCI  17
CLOQUET        CLOUDY    25  21  86 SE7       30.01S WCI  17
WHEATON        CLOUDY    28  28 100 SE16G23   29.84F WCI  17
BRAINERD       CLOUDY    30  27  88 S13G21    29.94F FOG     WCI  20
HIBBING        CLOUDY    26  22  84 S9        29.98S WCI  17
ALEXANDRIA     CLOUDY    32  29  88 SE20      29.88F WCI  20
SAINT CLOUD    CLOUDY    30  28  92 SE15      29.97F WCI  19
MINNEAPOLIS    CLOUDY    29  25  85 SE14      30.04F WCI  18
$$

  *****  WEATHER ACROSS SOUTH DAKOTA  *****

CITY           SKY/WX    TMP DP  RH WIND       PRES   REMARKS
SIOUX FALLS    MOCLDY    34  30  85 SE14      29.83F WCI  25
BROOKINGS      NOT AVBL
WATERTOWN      PTCLDY    33  30  88 S12       29.77F WCI  24
HURON          PTCLDY    34  30  85 S12       29.74F
SISSETON         N/A     32  32 100 S14       29.80F WCI  22
ABERDEEN       MOCLDY    30  27  88 CALM      29.76F
MITCHELL       MOCLDY    35  31  85 SE16      29.77F
PIERRE         CLOUDY    30  29  96 NW6       29.69S WCI  24
MOBRIDGE       CLOUDY    30  28  92 CALM      29.70S
RAPID CITY     MOCLDY    43  27  53 NW9       29.76F
$$

  *****  SOME WEATHER IN NEARBY STATES *****

CITY           SKY/WX    TMP DP  RH WIND       PRES   REMARKS
GLASGOW MT     PTCLDY    35  29  78 W8        29.78R
GREAT FALLS MT CLOUDY    45  28  51 W14       29.97R
CHEYENNE WY    CLOUDY    46  29  51 W25G35    30.00F
SCOTTSBLUFF NE   N/A    N/A N/A N/A MISG      29.93S
OMAHA NE       PTCLDY    35  29  78 SE12      29.91F
DES MOINES IA  CLOUDY    31  28  89 SE14      30.06F FOG     WCI  21
DAVENPORT IA   CLOUDY    28  23  81 SE14      30.20S WCI  17
CHICAGO IL     PTCLDY    22  18  85 SE3       30.25F
EAU CLAIRE WI  CLOUDY    25  20  81 S9        30.11S WCI  15
LA CROSSE WI   CLOUDY    27  22  81 S9        30.16S WCI  18
$$

  *****  SOME NATIONAL WEATHER *****

CITY           SKY/WX    TMP DP  RH WIND       PRES   REMARKS
LA GUARDIA NY  PTCLDY    18   3  52 NW16G24   29.95R WCI   3
RALEIGH NC     PTCLDY    27  13  55 CALM      30.12R
ATLANTA GA     CLEAR     32  24  72 NW8       30.17R WCI  25
NEW ORLEANS LA CLEAR     50  40  68 NE7       30.20R
OKLAHOMA CITY  CLEAR     47  36  65 S7        30.00F
ALBUQUERQUE NM PTCLDY    36  29  75 CALM      30.26R
SALT LAKE CITY CLOUDY    47  33  58 SW7       30.19S
LOS ANGELES CA PTCLDY    58  49  72 N6        30.17F
BOISE ID       FOG       34  34 100 CALM      30.24S VSB 1/4
SEATTLE WA     CLOUDY    47  44  90 CALM      30.33R
$$

*** WEATHER ACROSS MANITOBA...SASKATCHEWAN AND ONTARIO ***
                ***ONTARIO***

CITY           SKY/WX    TMP DP  RH WIND       PRES   REMARKS
GERALDTON      CLOUDY    23  21  93 SW6       30.06R WCI  16
THUNDER BAY    CLOUDY    25  23  93 NE6       30.09F WCI  18
SIOUX LOOKOUT  CLOUDY    25  25 100 VRB2      29.97S
TORONTO        CLEAR     10   3  72 N8        30.22R WCI  -1
BIG TROUT LK   CLEAR     -4  -8  84 NW3       30.14R
PICKLE LAKE    FOG       23  21  93 CALM      30.00  VSB 1/4
DRYDEN         CLOUDY    25  25 100 SE6       29.95S WCI  18
KENORA         CLOUDY    27  25  93 SE7       29.91F WCI  19
$$
                *** MANITOBA***

CITY           SKY/WX    TMP DP  RH WIND       PRES   REMARKS
BRANDON        FOG       27  27 100 NE18      29.82F VSB 3/8 WCI  13
DAUPHIN        CLOUDY    23  23 100 NE15      29.93R WCI  10
ISLAND LAKE    FLURRIES   7   3  85 N7        30.13R WCI  -5
PILOT MOUND      N/A     30  30 100 NE5         N/A
THE PAS        FLURRIES   5   0  78 NE6       30.11S WCI  -6
THOMPSON       PTCLDY   -15 -22  70 N7        30.22R WCI -31
WINNIPEG       FRZ DRZL  30  28  93 E8        29.88R FOG     WCI  23
LYNN LAKE      MOCLDY   -15 -20  76 N5        30.21R WCI -27
CHURCHILL      CRYSTALS -17 -24  70 NW20      30.23R BLWGSNOWWCI -44
GILLAM         CLEAR    -18 -26  69 NW8       30.25R WCI -37
$$
                ***SASKATCHEWAN***

CITY           SKY/WX    TMP DP  RH WIND       PRES   REMARKS
ESTEVAN        CLOUDY    28  27  93 E12       29.75R FOG     WCI  18
KINDERSLEY     CLOUDY    27  27 100 N6        29.92R WCI  20
LLOYDMINSTER   NOT AVBL
PRINCE ALBERT  LGT SNOW  12   9  85 E10       29.99R VSB 1   WCI  -1
REGINA         CLOUDY    28  27  93 E15       29.79R WCI  17
YORKTON        CLOUDY    21  19  93 N16G22    29.88R WCI   7
N. BATTLEFORD  FLURRIES  27  27 100 E5        29.96S WCI  21
LA RONGE       FLURRIES   1  -4  78 NE10      30.07F WCI -14
SASKATOON      CLOUDY    23  19  86 N10       29.95R WCI  12
SWIFT CURRENT  FOG       30  28  93 NW15      29.83R VSB 1/8 WCI  19
$$
NOTE: THESE ARE AUTOMATED STATIONS WITH LIMITED QUALITY CONTROL
      "FAIR" INDICATES FEW OR NO CLOUDS BELOW 12,000 FEET WITH NO
      SIGNIFICANT WEATHER AND/OR OBSTRUCTIONS TO VISIBILITY.
      SKY/WX - SKY CONDITION AND SIGNIFICANT WEATHER.
      TMP - AIR TEMPERATURE.    DP   - DEWPOINT TEMPERATURE.
      RH  - RELATIVE HUMIDITY.  PRES - PRESSURE.
      HX  - HEAT INDEX.         WCI  - WIND CHILL INDEX.
$


USA.gov is the U.S. government's official web portal to all federal, state and local government web resources and services.